Time,TemperatureF,DewpointF,PressureIn,WindDirection,WindDirectionDegrees,WindSpeedMPH,WindSpeedGustMPH,Humidity,HourlyPrecipIn,Conditions,Clouds,dailyrainin,SoftwareType,DateUTC
2013-02-28 00:01:00,26.0,23.0,29.93,NNW,342,5.0,12.0,89,0.00,,,0.01,,2013-02-28 06:01:00,
2013-02-28 00:11:00,26.0,23.0,29.93,NNW,342,5.0,12.0,89,0.00,,,0.01,,2013-02-28 06:11:00,
2013-02-28 00:22:00,26.0,23.0,29.93,NNW,336,6.0,10.0,89,0.00,,,0.01,,2013-02-28 06:22:00,
2013-02-28 00:32:00,25.0,22.0,29.93,NNW,340,4.0,12.0,89,0.00,,,0.01,,2013-02-28 06:32:00,
2013-02-28 00:42:00,25.0,22.0,29.93,NNW,340,4.0,12.0,89,0.00,,,0.01,,2013-02-28 06:42:00,
2013-02-28 00:52:00,25.0,22.0,29.94,NW,318,4.0,18.0,88,0.00,,,0.01,,2013-02-28 06:52:00,
2013-02-28 01:01:00,24.0,21.0,29.95,WNW,297,6.0,12.0,87,0.00,,,0.01,,2013-02-28 07:01:00,
2013-02-28 01:11:00,24.0,21.0,29.95,WNW,297,6.0,12.0,87,0.00,,,0.01,,2013-02-28 07:11:00,
2013-02-28 01:21:00,24.0,21.0,29.95,NNW,333,5.0,11.0,87,0.00,,,0.01,,2013-02-28 07:21:00,
2013-02-28 01:31:00,24.0,21.0,29.95,WNW,302,6.0,10.0,87,0.00,,,0.01,,2013-02-28 07:31:00,
2013-02-28 01:41:00,24.0,21.0,29.95,WNW,302,6.0,10.0,87,0.00,,,0.01,,2013-02-28 07:41:00,
2013-02-28 01:52:00,24.0,21.0,29.96,NW,308,4.0,11.0,87,0.00,,,0.01,,2013-02-28 07:52:00,
2013-02-28 02:01:00,24.0,21.0,29.96,NNW,331,3.0,12.0,87,0.00,,,0.01,,2013-02-28 08:01:00,
2013-02-28 02:11:00,24.0,21.0,29.96,NNW,331,3.0,12.0,87,0.00,,,0.01,,2013-02-28 08:11:00,
2013-02-28 02:22:00,25.0,22.0,29.96,WNW,301,5.0,10.0,87,0.00,,,0.01,,2013-02-28 08:22:00,
2013-02-28 02:32:00,24.0,20.0,29.96,NW,304,6.0,9.0,86,0.00,,,0.01,,2013-02-28 08:32:00,
2013-02-28 02:42:00,24.0,20.0,29.96,NW,304,6.0,9.0,86,0.00,,,0.01,,2013-02-28 08:42:00,
2013-02-28 02:53:00,24.0,20.0,29.96,NW,306,5.0,10.0,86,0.00,,,0.01,,2013-02-28 08:53:00,
2013-02-28 03:03:00,24.0,20.0,29.96,NW,308,4.0,8.0,86,0.00,,,0.01,,2013-02-28 09:03:00,
2013-02-28 03:11:00,24.0,20.0,29.96,NW,308,4.0,8.0,86,0.00,,,0.01,,2013-02-28 09:11:00,
2013-02-28 03:22:00,24.0,21.0,29.96,NW,322,4.0,10.0,87,0.00,,,0.01,,2013-02-28 09:22:00,
2013-02-28 03:32:00,24.0,21.0,29.96,NW,322,4.0,10.0,87,0.00,,,0.01,,2013-02-28 09:32:00,
2013-02-28 03:42:00,24.0,21.0,29.96,NW,322,4.0,10.0,87,0.00,,,0.01,,2013-02-28 09:42:00,
2013-02-28 03:52:00,24.0,21.0,29.97,NW,313,6.0,11.0,87,0.00,,,0.01,,2013-02-28 09:52:00,
2013-02-28 04:01:00,24.0,20.0,29.97,NW,313,4.0,9.0,86,0.00,,,0.01,,2013-02-28 10:01:00,
2013-02-28 04:11:00,24.0,20.0,29.98,NW,309,5.0,12.0,86,0.00,,,0.01,,2013-02-28 10:11:00,
2013-02-28 04:22:00,24.0,20.0,29.98,NW,309,5.0,12.0,86,0.00,,,0.01,,2013-02-28 10:22:00,
2013-02-28 04:32:00,24.0,20.0,29.98,NNW,333,3.0,10.0,86,0.00,,,0.01,,2013-02-28 10:32:00,
2013-02-28 04:42:00,24.0,20.0,29.98,NNW,333,3.0,10.0,86,0.00,,,0.01,,2013-02-28 10:42:00,
2013-02-28 04:52:00,23.0,19.0,29.98,NW,307,5.0,12.0,86,0.00,,,0.01,,2013-02-28 10:52:00,
2013-02-28 05:01:00,22.0,18.0,29.99,WNW,303,5.0,10.0,86,0.00,,,0.01,,2013-02-28 11:01:00,
2013-02-28 05:11:00,22.0,18.0,29.99,WNW,303,5.0,10.0,86,0.00,,,0.01,,2013-02-28 11:11:00,
2013-02-28 05:21:00,22.0,18.0,29.99,NW,309,3.0,8.0,86,0.00,,,0.01,,2013-02-28 11:21:00,
2013-02-28 05:32:00,21.0,17.0,30.00,NNW,336,3.0,9.0,86,0.00,,,0.01,,2013-02-28 11:32:00,
2013-02-28 05:42:00,21.0,17.0,30.00,NNW,336,3.0,9.0,86,0.00,,,0.01,,2013-02-28 11:42:00,
2013-02-28 05:52:00,21.0,18.0,30.00,NNW,330,3.0,9.0,87,0.00,,,0.01,,2013-02-28 11:52:00,
2013-02-28 06:01:00,22.0,19.0,30.01,NNW,335,2.0,8.0,87,0.00,,,0.01,,2013-02-28 12:01:00,
2013-02-28 06:11:00,22.0,19.0,30.01,NNW,335,2.0,8.0,87,0.00,,,0.01,,2013-02-28 12:11:00,
2013-02-28 06:21:00,22.0,19.0,30.01,NW,316,3.0,10.0,87,0.00,,,0.01,,2013-02-28 12:21:00,
2013-02-28 06:32:00,22.0,19.0,30.02,NNW,331,2.0,10.0,87,0.00,,,0.01,,2013-02-28 12:32:00,
2013-02-28 06:42:00,22.0,19.0,30.02,NNW,331,2.0,10.0,87,0.00,,,0.01,,2013-02-28 12:42:00,
2013-02-28 06:52:00,22.0,18.0,30.02,North,357,1.0,8.0,86,0.00,,,0.01,,2013-02-28 12:52:00,
2013-02-28 07:01:00,22.0,18.0,30.03,NW,309,3.0,9.0,86,0.00,,,0.01,,2013-02-28 13:01:00,
2013-02-28 07:11:00,23.0,19.0,30.03,NNW,340,3.0,8.0,86,0.00,,,0.01,,2013-02-28 13:11:00,
2013-02-28 07:21:00,23.0,19.0,30.03,NNW,340,3.0,8.0,86,0.00,,,0.01,,2013-02-28 13:21:00,
2013-02-28 07:32:00,23.0,19.0,30.04,North,351,2.0,8.0,85,0.00,,,0.01,,2013-02-28 13:32:00,
2013-02-28 07:42:00,23.0,19.0,30.04,North,351,2.0,8.0,85,0.00,,,0.01,,2013-02-28 13:42:00,
2013-02-28 07:52:00,23.0,19.0,30.04,North,358,1.0,6.0,85,0.00,,,0.01,,2013-02-28 13:52:00,
2013-02-28 08:01:00,24.0,20.0,30.05,NW,325,4.0,10.0,85,0.00,,,0.01,,2013-02-28 14:01:00,
2013-02-28 08:11:00,24.0,20.0,30.05,NNW,343,3.0,10.0,84,0.00,,,0.01,,2013-02-28 14:11:00,
2013-02-28 08:22:00,24.0,20.0,30.05,NNW,343,3.0,10.0,84,0.00,,,0.01,,2013-02-28 14:22:00,
2013-02-28 08:32:00,24.0,20.0,30.05,NNW,345,3.0,10.0,84,0.00,,,0.01,,2013-02-28 14:32:00,
2013-02-28 08:42:00,25.0,21.0,30.06,NW,314,4.0,12.0,83,0.00,,,0.01,,2013-02-28 14:42:00,
2013-02-28 08:52:00,25.0,21.0,30.06,NW,314,4.0,12.0,83,0.00,,,0.01,,2013-02-28 14:52:00,
2013-02-28 09:02:00,25.0,20.0,30.07,NW,316,4.0,11.0,82,0.00,,,0.01,,2013-02-28 15:02:00,
2013-02-28 09:11:00,26.0,21.0,30.07,NNW,344,3.0,9.0,82,0.00,,,0.01,,2013-02-28 15:11:00,
2013-02-28 09:21:00,26.0,21.0,30.07,NNW,344,3.0,9.0,82,0.00,,,0.01,,2013-02-28 15:21:00,
2013-02-28 09:32:00,27.0,22.0,30.08,NW,312,4.0,10.0,81,0.00,,,0.01,,2013-02-28 15:32:00,
2013-02-28 09:41:00,27.0,22.0,30.08,NW,312,4.0,10.0,81,0.00,,,0.01,,2013-02-28 15:41:00,
2013-02-28 09:52:00,26.0,21.0,30.08,NW,310,4.0,10.0,81,0.00,,,0.01,,2013-02-28 15:52:00,
2013-02-28 10:01:00,27.0,22.0,30.08,NW,310,5.0,11.0,80,0.00,,,0.01,,2013-02-28 16:01:00,
2013-02-28 10:11:00,27.0,22.0,30.08,WNW,303,5.0,11.0,80,0.00,,,0.01,,2013-02-28 16:11:00,
2013-02-28 10:22:00,27.0,22.0,30.08,WNW,303,5.0,11.0,80,0.00,,,0.01,,2013-02-28 16:22:00,
2013-02-28 10:32:00,27.0,22.0,30.09,NW,308,4.0,9.0,80,0.00,,,0.01,,2013-02-28 16:32:00,
2013-02-28 10:42:00,27.0,22.0,30.09,NW,308,4.0,9.0,80,0.00,,,0.01,,2013-02-28 16:42:00,
2013-02-28 10:52:00,28.0,22.0,30.09,NW,321,4.0,12.0,79,0.00,,,0.01,,2013-02-28 16:52:00,
2013-02-28 11:01:00,28.0,22.0,30.09,North,352,2.0,14.0,79,0.00,,,0.01,,2013-02-28 17:01:00,
2013-02-28 11:11:00,28.0,22.0,30.09,NW,323,4.0,10.0,78,0.00,,,0.01,,2013-02-28 17:11:00,
2013-02-28 11:21:00,28.0,22.0,30.09,NW,323,4.0,10.0,78,0.00,,,0.01,,2013-02-28 17:21:00,
2013-02-28 11:32:00,29.0,23.0,30.09,NNW,340,3.0,8.0,78,0.00,,,0.01,,2013-02-28 17:32:00,
2013-02-28 11:42:00,29.0,23.0,30.09,NNW,340,3.0,8.0,78,0.00,,,0.01,,2013-02-28 17:42:00,
2013-02-28 11:52:00,29.0,23.0,30.09,NNW,345,2.0,9.0,77,0.01,,,0.02,,2013-02-28 17:52:00,
2013-02-28 12:02:00,30.0,24.0,30.10,NNW,340,3.0,7.0,77,0.01,,,0.02,,2013-02-28 18:02:00,
2013-02-28 12:11:00,30.0,24.0,30.10,NW,326,3.0,8.0,77,0.01,,,0.02,,2013-02-28 18:11:00,
2013-02-28 12:22:00,30.0,24.0,30.10,NW,326,3.0,8.0,77,0.01,,,0.02,,2013-02-28 18:22:00,
2013-02-28 12:32:00,31.0,24.0,30.10,NNW,335,3.0,8.0,76,0.01,,,0.02,,2013-02-28 18:32:00,
2013-02-28 12:42:00,32.0,25.0,30.10,North,353,2.0,7.0,75,0.00,,,0.02,,2013-02-28 18:42:00,
2013-02-28 12:52:00,32.0,25.0,30.10,North,353,2.0,7.0,75,0.00,,,0.02,,2013-02-28 18:52:00,
2013-02-28 13:01:00,32.0,25.0,30.10,NNW,331,3.0,8.0,75,0.00,,,0.02,,2013-02-28 19:01:00,
2013-02-28 13:11:00,32.0,25.0,30.09,North,350,3.0,9.0,75,0.00,,,0.02,,2013-02-28 19:11:00,
2013-02-28 13:21:00,32.0,25.0,30.09,North,350,3.0,9.0,75,0.00,,,0.02,,2013-02-28 19:21:00,
2013-02-28 13:32:00,32.0,25.0,30.09,North,352,6.0,13.0,74,0.01,,,0.03,,2013-02-28 19:32:00,
2013-02-28 13:41:00,32.0,25.0,30.09,North,352,6.0,13.0,74,0.01,,,0.03,,2013-02-28 19:41:00,
2013-02-28 13:52:00,32.0,25.0,30.09,NNW,334,5.0,9.0,75,0.01,,,0.03,,2013-02-28 19:52:00,
2013-02-28 14:01:00,32.0,25.0,30.09,NNW,329,4.0,8.0,76,0.01,,,0.03,,2013-02-28 20:01:00,
2013-02-28 14:12:00,32.0,25.0,30.09,NNW,329,4.0,8.0,76,0.01,,,0.03,,2013-02-28 20:12:00,
2013-02-28 14:21:00,32.0,25.0,30.09,NNW,344,3.0,9.0,76,0.01,,,0.03,,2013-02-28 20:21:00,
2013-02-28 14:32:00,32.0,25.0,30.09,NNW,345,3.0,7.0,75,0.02,,,0.03,,2013-02-28 20:32:00,
2013-02-28 14:42:00,32.0,25.0,30.09,NNW,345,3.0,7.0,75,0.02,,,0.03,,2013-02-28 20:42:00,
2013-02-28 14:52:00,32.0,25.0,30.09,NNW,346,3.0,8.0,75,0.01,,,0.03,,2013-02-28 20:52:00,
2013-02-28 15:01:00,32.0,25.0,30.09,NNW,348,4.0,8.0,75,0.01,,,0.03,,2013-02-28 21:01:00,
2013-02-28 15:11:00,32.0,25.0,30.09,NNW,348,4.0,8.0,75,0.01,,,0.03,,2013-02-28 21:11:00,
2013-02-28 15:22:00,32.0,25.0,30.09,North,356,3.0,9.0,75,0.02,,,0.04,,2013-02-28 21:22:00,
2013-02-28 15:32:00,32.0,25.0,30.10,NNW,337,2.0,8.0,75,0.01,,,0.04,,2013-02-28 21:32:00,
2013-02-28 15:41:00,32.0,25.0,30.10,NNW,337,2.0,8.0,75,0.01,,,0.04,,2013-02-28 21:41:00,
2013-02-28 15:52:00,32.0,25.0,30.10,North,1,4.0,10.0,74,0.01,,,0.04,,2013-02-28 21:52:00,
2013-02-28 16:01:00,32.0,25.0,30.10,NNW,334,3.0,8.0,75,0.01,,,0.04,,2013-02-28 22:01:00,
2013-02-28 16:11:00,32.0,25.0,30.10,NNW,341,3.0,10.0,74,0.00,,,0.04,,2013-02-28 22:11:00,
2013-02-28 16:21:00,32.0,25.0,30.10,NNW,341,3.0,10.0,74,0.00,,,0.04,,2013-02-28 22:21:00,
2013-02-28 16:32:00,32.0,25.0,30.10,NNW,341,3.0,10.0,74,0.00,,,0.04,,2013-02-28 22:32:00,
2013-02-28 16:41:00,32.0,25.0,30.10,NNW,341,3.0,10.0,74,0.00,,,0.04,,2013-02-28 22:41:00,
2013-02-28 16:52:00,31.0,24.0,30.11,NNW,331,3.0,7.0,75,0.01,,,0.05,,2013-02-28 22:52:00,
2013-02-28 17:01:00,31.0,24.0,30.11,NNW,336,3.0,9.0,76,0.01,,,0.05,,2013-02-28 23:01:00,
2013-02-28 17:11:00,30.0,24.0,30.11,NNW,342,3.0,7.0,78,0.01,,,0.05,,2013-02-28 23:11:00,
2013-02-28 17:22:00,30.0,24.0,30.11,NNW,342,3.0,7.0,78,0.01,,,0.05,,2013-02-28 23:22:00,
2013-02-28 17:32:00,30.0,24.0,30.11,NNW,344,3.0,7.0,78,0.00,,,0.05,,2013-02-28 23:32:00,
2013-02-28 17:41:00,30.0,24.0,30.11,NNW,344,3.0,7.0,78,0.00,,,0.05,,2013-02-28 23:41:00,
2013-02-28 17:53:00,30.0,24.0,30.11,NNW,345,2.0,6.0,79,0.00,,,0.05,,2013-02-28 23:53:00,
2013-02-28 18:01:00,30.0,24.0,30.12,NNW,339,3.0,7.0,79,0.00,,,0.05,,2013-03-01 00:01:00,
2013-02-28 18:11:00,30.0,24.0,30.12,NNW,339,3.0,7.0,79,0.00,,,0.05,,2013-03-01 00:11:00,
2013-02-28 18:22:00,29.0,24.0,30.12,NNW,329,2.0,7.0,80,0.00,,,0.05,,2013-03-01 00:22:00,
2013-02-28 18:32:00,29.0,24.0,30.12,NNW,339,2.0,6.0,80,0.00,,,0.05,,2013-03-01 00:32:00,
2013-02-28 18:41:00,29.0,24.0,30.12,NNW,339,2.0,6.0,80,0.00,,,0.05,,2013-03-01 00:41:00,
2013-02-28 18:52:00,29.0,24.0,30.13,NW,322,2.0,5.0,81,0.00,,,0.05,,2013-03-01 00:52:00,
2013-02-28 19:01:00,29.0,24.0,30.13,NNW,341,2.0,8.0,81,0.00,,,0.05,,2013-03-01 01:01:00,
2013-02-28 19:11:00,29.0,24.0,30.13,NNW,329,1.0,5.0,81,0.00,,,0.05,,2013-03-01 01:11:00,
2013-02-28 19:21:00,29.0,24.0,30.13,NNW,329,1.0,5.0,81,0.00,,,0.05,,2013-03-01 01:21:00,
2013-02-28 19:32:00,29.0,24.0,30.13,North,350,2.0,6.0,82,0.00,,,0.05,,2013-03-01 01:32:00,
2013-02-28 19:42:00,29.0,24.0,30.13,North,350,2.0,6.0,82,0.00,,,0.05,,2013-03-01 01:42:00,
2013-02-28 19:52:00,29.0,24.0,30.13,NNE,12,1.0,6.0,82,0.00,,,0.05,,2013-03-01 01:52:00,
2013-02-28 20:01:00,29.0,24.0,30.13,NW,326,2.0,6.0,82,0.00,,,0.05,,2013-03-01 02:01:00,
2013-02-28 20:11:00,28.0,23.0,30.13,NNW,344,1.0,6.0,82,0.00,,,0.05,,2013-03-01 02:11:00,
2013-02-28 20:21:00,28.0,23.0,30.13,NNW,344,1.0,6.0,82,0.00,,,0.05,,2013-03-01 02:21:00,
2013-02-28 20:31:00,28.0,23.0,30.13,NNW,343,1.0,8.0,82,0.00,,,0.05,,2013-03-01 02:31:00,
2013-02-28 20:42:00,28.0,23.0,30.13,NNW,343,1.0,8.0,82,0.00,,,0.05,,2013-03-01 02:42:00,
2013-02-28 20:52:00,28.0,24.0,30.13,NW,322,2.0,6.0,83,0.00,,,0.05,,2013-03-01 02:52:00,
2013-02-28 21:01:00,28.0,24.0,30.13,NW,326,1.0,6.0,83,0.00,,,0.05,,2013-03-01 03:01:00,
2013-02-28 21:11:00,28.0,24.0,30.13,NW,307,1.0,5.0,83,0.00,,,0.05,,2013-03-01 03:11:00,
2013-02-28 21:21:00,28.0,24.0,30.13,NW,307,1.0,5.0,83,0.00,,,0.05,,2013-03-01 03:21:00,
2013-02-28 21:32:00,28.0,24.0,30.13,NNW,331,2.0,5.0,84,0.00,,,0.05,,2013-03-01 03:32:00,
2013-02-28 21:42:00,28.0,24.0,30.13,NNW,331,2.0,5.0,84,0.00,,,0.05,,2013-03-01 03:42:00,
2013-02-28 21:52:00,28.0,24.0,30.14,NNW,342,2.0,7.0,83,0.00,,,0.05,,2013-03-01 03:52:00,
2013-02-28 22:01:00,28.0,24.0,30.14,NNW,333,1.0,5.0,83,0.00,,,0.05,,2013-03-01 04:01:00,
2013-02-28 22:11:00,28.0,24.0,30.14,NNW,333,1.0,5.0,83,0.00,,,0.05,,2013-03-01 04:11:00,
2013-02-28 22:21:00,28.0,24.0,30.14,North,351,1.0,5.0,83,0.00,,,0.05,,2013-03-01 04:21:00,
2013-02-28 22:32:00,27.0,22.0,30.14,NNW,344,2.0,6.0,82,0.00,,,0.05,,2013-03-01 04:32:00,
2013-02-28 22:42:00,27.0,22.0,30.14,NNW,344,2.0,6.0,82,0.00,,,0.05,,2013-03-01 04:42:00,
2013-02-28 22:52:00,27.0,22.0,30.14,North,0,0.0,5.0,81,0.00,,,0.05,,2013-03-01 04:52:00,
2013-02-28 23:02:00,27.0,22.0,30.13,North,350,1.0,6.0,80,0.00,,,0.05,,2013-03-01 05:02:00,
2013-02-28 23:11:00,27.0,22.0,30.13,North,350,1.0,6.0,80,0.00,,,0.05,,2013-03-01 05:11:00,
2013-02-28 23:22:00,27.0,22.0,30.13,NNW,334,1.0,5.0,80,0.00,,,0.05,,2013-03-01 05:22:00,
2013-02-28 23:32:00,27.0,22.0,30.13,NNW,328,1.0,6.0,80,0.00,,,0.05,,2013-03-01 05:32:00,
2013-02-28 23:42:00,27.0,22.0,30.13,NNW,328,1.0,6.0,80,0.00,,,0.05,,2013-03-01 05:42:00,
2013-02-28 23:52:00,27.0,22.0,30.13,North,0,0.0,3.0,81,0.00,,,0.05,,2013-03-01 05:52:00,